Lid_Strength_Index
3 2 2 1 1 0 1 -0 -0 -1 -0 1 2 1 1 0 0 -0 -1 0 0 0 -1 0 0 -1 -0 -1 -1 0 0 1 0 1 1 1 -1 -1 -1 -1 -1 -1 -1
4 3 1 1 1 1 1 -0 -1 -1 -0 1 1 1 0 0 -0 -1 -1 -1 -1 -0 -0 -1 -0 -1 -0 -0 -1 -0 1 1 -0 1 2 3 2 1 -0 -1 -1 -1 -1
4 3 2 2 1 1 0 -0 -0 -0 -1 -1 -0 -0 -1 -0 0 0 0 -0 -1 -1 -1 -2 -1 -1 -1 0 -1 -0 0 2 0 -0 2 4 4 3 1 1 -0 -1 -0
4 3 3 2 1 1 0 0 -0 -1 -1 -2 -1 -1 1 1 1 0 -0 -1 -1 -2 -2 -2 -2 -2 -1 -0 -1 -1 -0 0 2 0 0 0 1 4 4 1 1 -0 -1
3 4 3 2 1 1 0 -0 -1 -1 -1 -1 -1 0 1 1 0 -0 -0 -0 -2 -2 -1 -2 -2 -1 -1 -1 -1 -1 -0 -0 1 1 1 1 1 1 3 4 2 1 -0
4 3 3 2 2 1 0 -0 -0 -0 -1 -1 -0 -1 0 0 1 0 1 0 -0 -0 -1 -2 -2 -2 -1 -1 -1 -1 -1 -0 -0 0 0 1 2 2 2 3 2 2 1
4 3 3 3 2 1 1 0 1 1 -0 -0 -0 -0 -0 -0 -0 0 1 1 1 -0 -1 -2 -1 -1 -2 -2 -2 -1 -1 -1 -0 0 -0 -0 1 1 1 1 2 3 1
3 3 3 2 1 1 1 1 1 1 0 -0 -0 -0 -0 1 1 -0 0 0 0 -0 -2 -1 -2 -2 -2 -2 -1 -1 -0 -1 -0 -0 -1 -0 -0 -0 0 1 2 3 2
4 3 2 2 2 2 1 1 1 0 -0 0 0 0 -0 -0 1 0 0 0 -1 -1 -1 -1 -1 -1 -1 -1 -1 -0 -0 -0 -1 -0 -1 -0 -0 -1 -1 -0 1 2 5
4 3 2 2 1 1 1 0 0 0 1 1 1 1 1 0 0 0 0 1 -0 -1 -1 -1 -1 -1 -1 -1 -1 -1 -1 -0 -0 -0 -1 -0 -1 -0 -1 -0 0 1 2
3 2 2 1 1 1 1 1 1 1 1 1 1 1 1 2 1 1 1 1 0 -0 0 0 0 0 -1 -1 -1 -0 -0 0 0 -0 -0 -0 -1 -0 -0 -0 -0 -0 1
3 2 2 2 1 2 2 2 1 2 2 1 1 1 2 2 1 2 2 1 1 0 0 -0 0 0 0 -1 -1 -0 -1 0 0 0 -0 0 -0 -0 -0 0 0 1 1
3 2 2 2 3 3 3 2 2 2 1 1 1 3 3 2 2 2 2 1 1 1 0 -0 0 0 -0 -0 -0 -0 0 0 -0 -0 0 0 1 1 0 0 0 0 2
3 3 4 4 4 3 3 3 2 2 1 2 3 2 2 1 1 1 2 1 1 1 1 1 0 -0 0 0 -0 -0 -0 0 -0 -0 -0 0 0 0 0 1 1 2 3
3 4 4 5 4 3 3 3 2 1 1 2 2 3 2 1 2 2 1 1 1 1 1 1 0 0 1 2 1 -0 0 0 -0 0 0 -1 -0 2 2 2 2 2 3
4 5 4 4 4 3 3 3 2 2 1 2 3 2 3 2 3 2 1 1 1 1 1 1 1 1 1 3 3 1 1 0 1 1 1 1 2 2 3 3 3 3 2
5 5 4 4 4 3 3 3 2 2 2 2 2 2 3 3 3 2 3 2 3 3 3 3 2 2 2 5 5 4 2 2 2 2 2 2 2 2 3 2 2 2 2
5 4 3 4 2 3 3 2 2 2 2 2 3 2 3 3 3 2 2 2 2 2 3 3 3 3 3 6 6 5 3 2 2 2 1 1 1 1 1 -0 -0 -0 -0
3 3 3 3 3 3 2 2 2 2 3 3 3 2 2 2 2 2 2 1 2 2 3 2 2 2 2 7 7 4 2 2 1 1 0 -0 0 5 4 1 0 0 -0
2 2 3 2 3 2 2 2 3 2 3 3 3 2 2 2 3 2 2 2 2 2 2 1 1 4 2 7 7 5 1 -0 0 -0 -0 4 3 5 6 0 0 1 0
3 2 3 3 3 2 2 3 2 3 2 2 2 2 1 1 1 1 0 0 0 0 0 0 -1 -1 1 2 6 6 -0 0 1 2 1 1 5 6 5 6 -0 1 4
3 3 3 2 2 2 2 3 2 2 2 2 2 1 1 1 0 0 -0 -0 0 0 0 0 0 -0 -1 4 5 5 5 3 1 1 0 1 6 6 6 6 6 7 6
3 2 3 2 2 2 2 2 2 2 2 2 2 1 0 -0 -0 0 0 1 -0 1 1 1 1 1 1 1 5 5 5 4 1 1 3 5 6 7 6 7 7 7 1
3 2 3 2 2 2 1 2 1 1 2 1 1 -0 -0 0 0 1 2 3 3 3 3 2 2 2 3 4 5 4 2 4 2 2 1 2 4 6 5 2 2 1 1
2 2 2 2 2 2 1 1 1 1 1 0 0 0 0 0 1 2 3 3 4 6 4 4 3 4 4 6 9 9 5 4 4 6 1 1 2 2 1 1 1 1 1
2 2 1 2 2 1 1 1 1 0 0 1 1 1 1 1 0 2 3 9 8 9 10 10 9 6 10 10 10 10 10 10 9 3 2 2 2 2 2 2 2 1 2